Regional Weather Roundup
Issued by NWS Charleston, SC

Current Version | Previous Version | Graphics & Text | Print | Product List | Glossary On
Versions: 1 2 3 4 5 6 7 8 9 10 11 12 13 14 15 16 17 18 19 20 21 22 23 24 25 26 27 28 29 30 31 32 33 34 35 36 37 38 39 40 41 42 43 44 45 46 47 48 49 50
000
ASUS42 KCHS 280427
RWRCHS

REGIONAL WEATHER ROUNDUP
NATIONAL WEATHER SERVICE CHARLESTON SC
1200 AM EDT TUE APR 28 2015

NOTE: "FAIR" INDICATES FEW OR NO CLOUDS BELOW 12,000 FEET WITH NO
SIGNIFICANT WEATHER AND/OR OBSTRUCTIONS TO VISIBILITY.

NOT ALL STATIONS ARE QUALITY CONTROLLED BY THE NATIONAL
WEATHER SERVICE. USE DATA WITH CAUTION...ESPECIALLY
DEWPOINT OBSERVATIONS.

SCZ027-030-031-034>040-042>050-280500-
...SOUTHEAST SOUTH CAROLINA...

CITY           SKY/WX    TMP DP  RH WIND       PRES   REMARKS
N CHARLESTON   CLOUDY    62  55  77 CALM      29.88F
WATERFRONT PRK   N/A     64 N/A N/A SW3         N/A
MOUNT PLEASANT FAIR      57  55  94 MISG      29.88F
PINOPOLIS      NOT AVBL
MONCKS CORNER  FAIR      55  54  94 CALM      29.88F
SUMMERVILLE    FAIR      55  55 100 CALM      29.89F
BEAUFORT MCAS  CLOUDY    62  55  77 CALM      29.88F
BEAUFORT ARPT  FAIR      61  59  94 CALM      29.87F
HILTON HEAD IS CLOUDY    61  59  94 CALM      29.89F
WALTERBORO     CLOUDY    54  52  94 CALM      29.89F
ALLENDALE      FAIR      59  57  94 CALM      29.88R

...SOUTHERN MIDLANDS AND PEE DEE...

CITY           SKY/WX    TMP DP  RH WIND       PRES   REMARKS
GEORGETOWN     NOT AVBL
KINGSTREE      NOT AVBL
ORANGEBURG     CLOUDY    56  51  84 CALM      29.88F
BARNWELL       FAIR      57  55  94 CALM      29.89R
AIKEN          FAIR      54  50  87 CALM      29.92R
MANNING        FAIR      52  39  62 N6        29.89S
COLUMBIA       MOCLDY    59  51  75 CALM      29.89S
SUMTER         MOCLDY    55  46  71 NE9       29.89S
FLORENCE       MOCLDY    58  41  53 NE9       29.92R
MYRTLE BEACH   MOCLDY    61  45  55 N13       29.92S
N MYRTLE BEACH MOCLDY    59  42  53 N8        29.90R

$$

GAZ063-065-086>088-099>101-113>116-118-119-134>141-150-280500-
...SOUTHEAST GEORGIA...

CITY           SKY/WX    TMP DP  RH WIND       PRES   REMARKS
SAVANNAH ARPT  CLOUDY    63  59  87 SE3       29.88F
HUNTER AAF     CLOUDY    62  62  99 CALM      29.86S
FORT STEWART   CLOUDY    63  61  94 CALM      29.85S FOG
STATESBORO       N/A     59  59 100 CALM      29.87S
SYLVANIA       CLOUDY    58  58 100 CALM      29.88S
CLAXTON        FAIR      61  59  94 CALM      29.88R

...CSRA...CENTRAL AND FAR SOUTHEAST GEORGIA...

CITY           SKY/WX    TMP DP  RH WIND       PRES   REMARKS
THOMSON        CLOUDY    57  57 100 CALM      29.93R
AUGUSTA-BUSH   CLOUDY    56  54  93 CALM      29.88S
AUGUSTA-DANIEL CLOUDY    65  52  62 E3        29.89S
SWAINSBORO     NOT AVBL
VIDALIA        CLOUDY    63  57  82 CALM      29.88R
EASTMAN        FAIR      60  60 100 CALM      29.89S
HAZLEHURST     FAIR      66  60  80 E3        29.86S
ALMA           CLOUDY    62  60  93 CALM      29.85F
WAYCROSS       CLOUDY    66  65  96 CALM      29.86R
JESUP          FAIR      64  63  94 CALM      29.87S
BAXLEY         FAIR      64  63  94 NE3       29.86F
BRUNSWICK      CLOUDY    63  61  94 E5        29.88R
SAINT SIMONS   CLOUDY    66  60  81 E6        29.86S

$$

SCZ027-028-034-036>038-045-046-048>050-GAZ119-141-280500-
...LAKE AND SUPPLEMENTAL COASTAL OBSERVATIONS...

STATION/POSITION TIME  TEMP    WIND        PRES    WAVE   SWELL
                       AIR SEA DIR/SP/G            HT/PER HT/PER/DIR
                 (UTC) (F)     (DEG/KT/KT) (MB)    (FT/S) (FT/S/D)
UPR LAKE MARION  NOT AVBL
WINYAH BAY       0300   59     290/  3     1011.0R
LAKE MURRAY      0300   61      CALM  /  1 1011.9S
ACE BASIN NERRS  NOT AVBL
FORT PULASKI     0306   65 70  130/  2/  2 1012.3F
SAPELO ISLAND    0400   63      80/  3     1011.0S

$$

ANZ835-935-AMZ111-154-330-350-352-354-370-450-454-472-280500-
...C-MAN AND BUOY OBSERVATIONS...

STATION/POSITION TIME  TEMP    WIND        PRES    WAVE   SWELL
                       AIR SEA DIR/SP/G            HT/PER HT/PER/DIR
                 (UTC) (F)     (DEG/KT/KT) (MB)    (FT/S) (FT/S/D)
BUOY 41004       0350   67 71  260/  2/  4 1011.6F   2/ 5   2/ 5
BUOY 41008       0350   67 69   80/  8/  8 1011.9R   2/ 6   2/ 70/ 6
FOLLY BEACH CMAN 0400   65     230/  3/  4 1011.9F
CAPERS NEARSHORE 0308   66     230/  8/ 10 1012.6R
FRIPP NEARSHORE  0300   67     200/  6/  8 1011.9R


STATION/POSITION TIME  TEMP    WIND        PRES    WAVE   SWELL
                       AIR SEA DIR/SP/G            HT/PER HT/PER/DIR
                 (UTC) (F)     (DEG/KT/KT) (MB)    (FT/S) (FT/S/D)
5E ST. MARYS GA  0321      70                N/A     2/ 7
FRYING PAN BUOY  0350   68 71  320/ 16/ 17 1012.0R   3/ 7   3/100/ 7
BUOY 41025       0350   61 74   10/ 16/ 19 1011.1R   3/ 8   2/ 80/ 8
CAPE LOOKOUT NC  0400   59      20/  7/  8 1011.3R
BUOY 41002       0350   66 70  340/ 14/ 17 1010.9R   5/ 8   3/ 10/ 8
BUOY 41010       0320   75 79   20/ 10/ 12 1011.2R
ST AUGUSTINE FL  0400   68 69   60/  8/  8 1012.0F


$$



USA.gov is the U.S. government's official web portal to all federal, state and local government web resources and services.